Home > Weather > Friedrichshafen > Past weeks

Flag for Germany Weather for the Past 2 Weeks in Friedrichshafen, Baden-Württemberg, Germany

Now
41 °F

Passing clouds.


Feels Like: 39 °F
Forecast: 35 / 59 °F
Wind: 3 mph from North

Location: Friedrichshafen Airport

Current Time: Apr 28, 2016 at 11:51:40 PM

Latest Report: Apr 28, 2016 at 10:50 PM


Visibility: N/A

Pressure: 30.04 "Hg

Humidity: 76%

Dew Point: 34 °F

Location of FriedrichshafenLocation

Historic Weather in Friedrichshafen — Graph

°F

Friedrichshafen Temperature Yesterday

Maximum temperature yesterday: 45 °F (at 3:20 PM)
Minimum temperature yesterday: 34 °F (at 12:20 AM)
Average temperature yesterday: 39 °F

High & Low Weather Summary for the Past Weeks

 TemperatureHumidityPressure
High70 °F (Apr 22, 2:50 PM)100% (Apr 22, 3:50 AM)30.33 "Hg (Apr 22, 3:50 AM)
Low28 °F (Apr 28, 5:50 AM)29% (Apr 19, 5:50 PM)29.62 "Hg (Apr 16, 11:50 PM)
Average47 °F73%29.95 "Hg
* Reported Apr 13 9:20 PM — Apr 28 9:50 PM, Friedrichshafen, Weather by CustomWeather, © 2016

Note: Actual official high and low records may vary slightly from our data, if they occured in-between our weather recording intervals... More about our weather records

Advertising

Friedrichshafen Weather History for the Previous 24 Hours

Scroll right to see more
 ConditionsComfort  
Time TempWeatherWind HumidityBarometerVisibility
9:50 PM
Thu, Apr 28
43 °FClear.3 mph66%30.04 "Hg10 mi
9:20 PM45 °FSunny.3 mph57%30.01 "Hg10 mi
8:50 PM46 °FSunny.2 mph53%30.01 "Hg10 mi
8:20 PM48 °FSunny.No wind54%30.01 "Hg10 mi
7:50 PM50 °FSunny.No wind47%30.01 "Hg10 mi
7:20 PM50 °FSunny.3 mph40%30.01 "Hg10 mi
6:50 PM50 °FOvercast.5 mph47%29.98 "HgN/A
6:20 PM50 °FBroken clouds.6 mph43%29.98 "HgN/A
5:50 PM50 °FPartly sunny.5 mph43%29.98 "HgN/A
5:20 PM52 °FPartly sunny.7 mph41%29.98 "HgN/A
4:50 PM50 °FPartly sunny.6 mph40%29.98 "HgN/A
4:20 PM52 °FPassing clouds.9 mph44%29.98 "HgN/A
3:50 PM52 °FScattered clouds.7 mph41%29.98 "HgN/A
2:50 PM52 °FBroken clouds.7 mph41%29.98 "HgN/A
2:20 PM50 °FPartly sunny.6 mph40%29.98 "HgN/A
1:50 PM50 °FPassing clouds.8 mph40%29.98 "HgN/A
1:20 PM48 °FPassing clouds.6 mph43%29.98 "HgN/A
12:50 PM46 °FPassing clouds.8 mph50%29.98 "HgN/A
12:20 PM48 °FSunny.5 mph46%29.98 "Hg10 mi
11:50 AM46 °FPassing clouds.6 mph50%29.98 "HgN/A
11:20 AM45 °FSunny.6 mph49%29.98 "Hg10 mi
10:50 AM45 °FSunny.3 mph49%29.98 "Hg10 mi
10:20 AM43 °FSunny.3 mph57%29.98 "Hg10 mi
9:50 AM43 °FSunny.2 mph66%29.98 "Hg10 mi
9:20 AM41 °FSunny.2 mph70%29.98 "Hg10 mi
7:50 AM36 °FSunny.No wind81%29.98 "Hg10 mi
6:50 AM28 °FClear.No wind93%29.95 "Hg10 mi
5:50 AM28 °FClear.2 mph93%29.95 "Hg10 mi
Weather by CustomWeather, © 2016

See weather overviewHow to use our weather pages